Eindhoven, Netherlands

4:56 AM CEST on August 29, 2016 (GMT +0200)
Eindhoven Air Base

Weather History for EHEH - February, 2013

Change the Weather History Date:

Friday, February 8, 2013

  Actual Average Record
Temperature  
Mean Temperature 34 °F -  
Max Temperature 39 °F 45 °F 55 °F (2000)
Min Temperature 26 °F 33 °F 14 °F (2012)
Degree Days  
Heating Degree Days 32    
Moisture  
Dew Point 32 °F    
Average Humidity 94    
Maximum Humidity 100    
Minimum Humidity 55    
Precipitation  
Precipitation 0.02 in - - ()
Sea Level Pressure  
Sea Level Pressure 29.96 in    
Wind  
Wind Speed 6 mph ()    
Max Wind Speed 10 mph    
Max Gust Speed -    
Visibility 4.9 miles    
Events Rain , Snow    
Averages and records for this station are not official NWS values.
T = Trace of Precipitation, MM = Missing Value Source: Averaged Metar Reports

Daily Weather History Graph

Daily Weather History Graph

Search for Another Location

Airport or City:

Trip Planner

Search our weather history database for the weather conditions in past years. The results will help you decide how hot, cold, wet, or windy it might be!

Date:

Astronomy

Feb. 08, 2013 Rise Set
Actual Time 8:04 AM CET 5:41 PM CET
Civil Twilight 7:29 AM CET 6:16 PM CET
Nautical Twilight 6:50 AM CET 6:55 PM CET
Astronomical Twilight 6:11 AM CET 7:34 PM CET
Moon 6:28 AM CET (2/8) 3:50 PM CET (2/8)
Length of Visible Light 10h 46m
Length of Day
9h 36m
Waning Crescent, 5% of the Moon is Illuminated
Feb 8
Waning Crescent
Feb 10
New
Feb 17
First Quarter
Feb 25
Full
Mar 4
Last Quarter

Hourly Weather History & Observations

Time (CET) Temp. Windchill Dew Point Humidity Pressure Visibility Wind Dir Wind Speed Gust Speed Precip Events Conditions
12:25 AM 32.0 °F 25.6 °F 32.0 °F 100% 29.89 in 6.2 mi WSW 6.9 mph - N/A   Mostly Cloudy
12:55 AM 33.8 °F 27.0 °F 33.8 °F 100% 29.89 in 6.2 mi WSW 8.1 mph - N/A   Overcast
1:06 AM 32.0 °F 25.6 °F 32.0 °F 100% 29.89 in 6.2 mi WSW 6.9 mph - N/A   Mostly Cloudy
1:10 AM 32.0 °F 24.8 °F 32.0 °F 100% 29.89 in 5.6 mi WSW 8.1 mph - N/A   Overcast
1:25 AM 32.0 °F 24.8 °F 32.0 °F 100% 29.89 in 6.2 mi WSW 8.1 mph - N/A   Mostly Cloudy
1:29 AM 32.0 °F 25.6 °F 32.0 °F 100% 29.89 in 6.2 mi WSW 6.9 mph - N/A   Mostly Cloudy
1:33 AM 32.0 °F 25.6 °F 32.0 °F 100% 29.86 in 6.2 mi WSW 6.9 mph - N/A   Mostly Cloudy
1:37 AM 32.0 °F 25.6 °F 32.0 °F 100% 29.86 in 6.2 mi West 6.9 mph - N/A   Mostly Cloudy
1:46 AM 33.8 °F 27.7 °F 33.8 °F 100% 29.86 in 4.3 mi West 6.9 mph - N/A Snow Light Snow
1:50 AM 33.8 °F 28.6 °F 33.8 °F 100% 29.89 in 5.6 mi West 5.8 mph - N/A Snow Light Snow
1:55 AM 33.8 °F 28.6 °F 33.8 °F 100% 29.89 in 2.8 mi West 5.8 mph - N/A Snow Light Snow
2:03 AM 33.8 °F 28.6 °F 33.8 °F 100% 29.89 in 3.1 mi West 5.8 mph - N/A Snow Light Snow
2:07 AM 33.8 °F 28.6 °F 33.8 °F 100% 29.89 in 3.1 mi West 5.8 mph - N/A Snow Light Snow
2:11 AM 33.8 °F 27.7 °F 33.8 °F 100% 29.89 in 3.7 mi West 6.9 mph - N/A Rain Rain
2:20 AM 33.8 °F 28.6 °F 33.8 °F 100% 29.89 in - West 5.8 mph - N/A Snow Light Snow
2:25 AM 33.8 °F 28.6 °F 33.8 °F 100% 29.89 in 3.1 mi West 5.8 mph - N/A Snow Light Snow
2:31 AM 33.8 °F 28.6 °F 33.8 °F 100% 29.89 in 3.1 mi West 5.8 mph - N/A Rain Rain
2:37 AM 33.8 °F 28.6 °F 33.8 °F 100% 29.89 in 0.9 mi West 5.8 mph - N/A Snow Light Snow
2:41 AM 32.0 °F 26.4 °F 32.0 °F 100% 29.89 in 0.8 mi WSW 5.8 mph - N/A Snow Light Snow
2:45 AM 32.0 °F 26.4 °F 32.0 °F 100% 29.89 in 1.1 mi WSW 5.8 mph - N/A Snow Light Snow
2:46 AM 32.0 °F 26.4 °F 32.0 °F 100% 29.86 in 1.2 mi WSW 5.8 mph - N/A Snow Light Snow
2:55 AM 32.0 °F 26.4 °F 32.0 °F 100% 29.86 in 3.1 mi WSW 5.8 mph - N/A Snow Light Snow
3:08 AM 32.0 °F 26.4 °F 32.0 °F 100% 29.89 in 3.7 mi WSW 5.8 mph - N/A Snow Light Snow
3:12 AM 32.0 °F 25.6 °F 32.0 °F 100% 29.86 in 3.7 mi WSW 6.9 mph - N/A Snow Light Snow
3:13 AM 32.0 °F 25.6 °F 32.0 °F 100% 29.86 in 3.7 mi WSW 6.9 mph - N/A Snow Light Snow
3:21 AM 32.0 °F 25.6 °F 32.0 °F 100% 29.86 in - WSW 6.9 mph - N/A Rain Rain
3:25 AM 32.0 °F 25.6 °F 32.0 °F 100% 29.86 in 3.7 mi WSW 6.9 mph - N/A Snow Light Snow
3:31 AM 32.0 °F 26.4 °F 32.0 °F 100% 29.86 in - WSW 5.8 mph - N/A Snow Light Snow
3:41 AM 32.0 °F 26.4 °F 32.0 °F 100% 29.86 in 5.0 mi WSW 5.8 mph - N/A   Mostly Cloudy
3:55 AM 33.8 °F 27.7 °F 33.8 °F 100% 29.86 in 4.3 mi WSW 6.9 mph - N/A   Overcast
4:00 AM 33 °F - 33 °F 99% 29.88 in 4 mi West 6.7 mph - - Rain Rain Showers
4:17 AM 33.8 °F 28.6 °F 33.8 °F 100% 29.86 in 6.2 mi West 5.8 mph - N/A   Overcast
4:25 AM 33.8 °F 29.6 °F 33.8 °F 100% 29.86 in 6.2 mi WNW 4.6 mph - N/A   Overcast
4:36 AM 33.8 °F 28.6 °F 33.8 °F 100% 29.86 in 4.3 mi West 5.8 mph - N/A   Overcast
4:55 AM 33.8 °F 28.6 °F 33.8 °F 100% 29.86 in 3.7 mi West 5.8 mph - N/A   Mostly Cloudy
5:16 AM 33.8 °F 29.6 °F 33.8 °F 100% 29.89 in - NW 4.6 mph - N/A   Overcast
5:25 AM 33.8 °F 29.6 °F 33.8 °F 100% 29.89 in 3.1 mi NW 4.6 mph - N/A   Overcast
5:35 AM 33.8 °F 30.8 °F 33.8 °F 100% 29.89 in 2.2 mi NW 3.5 mph - N/A   Overcast
5:45 AM 33.8 °F 30.8 °F 33.8 °F 100% 29.89 in - NW 3.5 mph - N/A   Overcast
5:51 AM 33.8 °F 30.8 °F 33.8 °F 100% 29.89 in 1.7 mi NW 3.5 mph - N/A   Light Drizzle
5:55 AM 33.8 °F 29.6 °F 33.8 °F 100% 29.89 in 1.7 mi NNW 4.6 mph - N/A   Overcast
6:12 AM 33.8 °F 28.6 °F 33.8 °F 100% 29.89 in 1.6 mi NNW 5.8 mph - N/A   Overcast
6:20 AM 33.8 °F 29.6 °F 33.8 °F 100% 29.89 in 1.6 mi NW 4.6 mph - N/A   Overcast
6:25 AM 33.8 °F 29.6 °F 33.8 °F 100% 29.89 in 1.6 mi NW 4.6 mph - N/A   Overcast
6:55 AM 33.8 °F 29.6 °F 33.8 °F 100% 29.89 in 1.6 mi NW 4.6 mph - N/A   Mostly Cloudy
7:00 AM 33 °F - 33 °F 100% 29.92 in 2 mi NW 4.5 mph - - Rain Light Rain Showers
7:25 AM 33.8 °F 29.6 °F 33.8 °F 100% 29.92 in - NNW 4.6 mph - N/A Rain , Snow Light Snow
7:55 AM 33.8 °F 29.6 °F 33.8 °F 100% 29.92 in - NW 4.6 mph - N/A   Mostly Cloudy
8:25 AM 33.8 °F 28.6 °F 33.8 °F 100% 29.95 in 3.1 mi North 5.8 mph - N/A   Mostly Cloudy
8:47 AM 33.8 °F 28.6 °F 33.8 °F 100% 29.95 in 3.1 mi North 5.8 mph - N/A   Overcast
8:55 AM 33.8 °F 28.6 °F 33.8 °F 100% 29.95 in 3.7 mi North 5.8 mph - N/A   Mostly Cloudy
9:25 AM 33.8 °F 27.0 °F 33.8 °F 100% 29.95 in 5.0 mi North 8.1 mph - N/A   Overcast
9:33 AM 33.8 °F 27.0 °F 33.8 °F 100% 29.95 in 5.0 mi North 8.1 mph - N/A   Mostly Cloudy
9:41 AM 33.8 °F 27.0 °F 33.8 °F 100% 29.95 in 5.0 mi North 8.1 mph - N/A   Overcast
9:50 AM 33.8 °F 27.0 °F 33.8 °F 100% 29.98 in 5.6 mi North 8.1 mph - N/A   Overcast
9:55 AM 33.8 °F 26.4 °F 33.8 °F 100% 29.98 in 5.0 mi North 9.2 mph - N/A   Overcast
9:59 AM 33.8 °F 26.4 °F 33.8 °F 100% 29.98 in 4.3 mi North 9.2 mph - N/A   Overcast
10:12 AM 35.6 °F 29.2 °F 33.8 °F 93% 29.98 in 5.0 mi North 8.1 mph - N/A   Overcast
10:16 AM 35.6 °F 29.2 °F 33.8 °F 93% 29.98 in 5.0 mi North 8.1 mph - N/A   Overcast
10:25 AM 35.6 °F 29.2 °F 33.8 °F 93% 29.98 in 5.6 mi North 8.1 mph - N/A   Overcast
10:27 AM 35.6 °F 29.9 °F 33.8 °F 93% 29.98 in 6.2 mi North 6.9 mph - N/A   Overcast
10:41 AM 35.6 °F 29.9 °F 33.8 °F 93% 29.98 in 6.2 mi North 6.9 mph - N/A   Overcast
10:55 AM 35.6 °F 29.9 °F 32.0 °F 87% 29.98 in 6.2 mi North 6.9 mph - N/A   Mostly Cloudy
11:25 AM 37.4 °F 33.8 °F 30.2 °F 75% 29.98 in 6.2 mi North 4.6 mph - N/A   Mostly Cloudy
11:28 AM 37.4 °F 34.9 °F 30.2 °F 75% 29.98 in 6.2 mi NNE 3.5 mph - N/A   Mostly Cloudy
11:55 AM 37.4 °F 31.4 °F 30.2 °F 75% 29.98 in 6.2 mi North 8.1 mph - N/A   Mostly Cloudy
12:25 PM 37.4 °F 31.4 °F 30.2 °F 75% 29.98 in 6.2 mi North 8.1 mph - N/A   Mostly Cloudy
12:55 PM 39.2 °F 34.2 °F 30.2 °F 70% 29.98 in 6.2 mi North 6.9 mph - N/A   Overcast
1:00 PM 38 °F - 28 °F 55% 30.01 in 22 mi NNW 8.9 mph - -   Partly Cloudy
1:25 PM 37.4 °F 31.4 °F 26.6 °F 65% 30.01 in 6.2 mi NNW 8.1 mph - N/A   Overcast
1:55 PM 39.2 °F 35.0 °F 26.6 °F 61% 30.01 in 6.2 mi NNW 5.8 mph - N/A   Mostly Cloudy
2:25 PM 39.2 °F 35.0 °F 26.6 °F 61% 29.98 in 6.2 mi North 5.8 mph - N/A   Overcast
2:55 PM 37.4 °F 30.8 °F 26.6 °F 65% 29.98 in 6.2 mi NNW 9.2 mph - N/A   Mostly Cloudy
3:25 PM 37.4 °F 31.4 °F 28.4 °F 70% 30.01 in 6.2 mi NNW 8.1 mph - N/A   Mostly Cloudy
3:55 PM 37.4 °F 32.8 °F 28.4 °F 70% 30.01 in 6.2 mi North 5.8 mph - N/A   Overcast
4:00 PM 38 °F - 28 °F 56% 30.01 in 19 mi NNW 4.5 mph - - Rain Rain Showers
4:25 PM 37.4 °F 30.3 °F 28.4 °F 70% 30.01 in 6.2 mi North 10.4 mph - N/A   Mostly Cloudy
4:55 PM 35.6 °F 29.9 °F 28.4 °F 75% 30.01 in 6.2 mi NW 6.9 mph - N/A   Overcast
5:25 PM 35.6 °F 30.7 °F 28.4 °F 75% 30.01 in 6.2 mi NW 5.8 mph - N/A   Mostly Cloudy
5:55 PM 33.8 °F 28.6 °F 28.4 °F 81% 30.01 in 6.2 mi WNW 5.8 mph - N/A   Mostly Cloudy
6:19 PM 33.8 °F 28.6 °F 28.4 °F 81% 30.01 in 4.3 mi WNW 5.8 mph - N/A Snow Light Snow
6:25 PM 33.8 °F 27.7 °F 30.2 °F 87% 30.04 in 2.2 mi NW 6.9 mph - N/A Snow Light Snow
6:29 PM 32.0 °F 24.8 °F 32.0 °F 100% 30.04 in - NNW 8.1 mph - N/A Snow Light Snow
6:30 PM 32.0 °F 24.8 °F 32.0 °F 100% 30.04 in - North 8.1 mph - N/A Snow Light Snow
6:32 PM 32.0 °F 24.8 °F 32.0 °F 100% 30.04 in - North 8.1 mph - N/A Snow Light Snow
6:39 PM 32.0 °F 26.4 °F 32.0 °F 100% 30.04 in 0.9 mi NNW 5.8 mph - N/A Snow Snow
6:43 PM 32.0 °F 26.4 °F 32.0 °F 100% 30.04 in 1.2 mi NNW 5.8 mph - N/A Snow Light Snow
6:50 PM 32.0 °F 27.5 °F 32.0 °F 100% 30.04 in 4.3 mi NW 4.6 mph - N/A Snow Light Snow
6:55 PM 32.0 °F 28.7 °F 32.0 °F 100% 30.04 in 6.2 mi WNW 3.5 mph - N/A   Mostly Cloudy
7:00 PM 32 °F - 32 °F 100% 30.05 in 19 mi WNW 4.5 mph - - Snow Snow
7:08 PM 32.0 °F 27.5 °F 32.0 °F 100% 30.04 in 6.2 mi WNW 4.6 mph - N/A   Overcast
7:25 PM 32.0 °F 27.5 °F 32.0 °F 100% 30.04 in 6.2 mi West 4.6 mph - N/A   Mostly Cloudy
7:55 PM 30.2 °F 25.4 °F 30.2 °F 100% 30.04 in 6.2 mi WNW 4.6 mph - N/A   Unknown
8:25 PM 32.0 °F 26.4 °F 32.0 °F 100% 30.04 in 6.2 mi NW 5.8 mph - N/A   Overcast
8:55 PM 32.0 °F 26.4 °F 30.2 °F 93% 30.04 in 6.2 mi NW 5.8 mph - N/A   Mostly Cloudy
9:25 PM 30.2 °F 25.4 °F 30.2 °F 100% 30.06 in 6.2 mi NW 4.6 mph - N/A   Partly Cloudy
9:55 PM 30.2 °F 25.4 °F 28.4 °F 93% 30.06 in 5.6 mi WNW 4.6 mph - N/A   Partly Cloudy
10:00 PM 29 °F - 28 °F 95% 30.08 in 5 mi West 4.5 mph - -   Mist
10:01 PM 28.4 °F 23.3 °F 28.4 °F 100% 30.06 in 4.3 mi West 4.6 mph - N/A   Partly Cloudy
10:05 PM 28.4 °F 23.3 °F 28.4 °F 100% 30.06 in 5.0 mi West 4.6 mph - N/A   Partly Cloudy
10:10 PM 28.4 °F 23.3 °F 28.4 °F 100% 30.06 in 4.3 mi West 4.6 mph - N/A   Partly Cloudy
10:14 PM 28.4 °F 23.3 °F 28.4 °F 100% 30.06 in - WNW 4.6 mph - N/A   Partly Cloudy
10:18 PM 28.4 °F 23.3 °F 28.4 °F 100% 30.06 in - WNW 4.6 mph - N/A   Scattered Clouds
10:25 PM 28.4 °F 23.3 °F 28.4 °F 100% 30.06 in - WNW 4.6 mph - N/A   Partly Cloudy
10:32 PM 28.4 °F 23.3 °F 28.4 °F 100% 30.06 in 3.1 mi West 4.6 mph - N/A   Mist
10:45 PM 28.4 °F 23.3 °F 28.4 °F 100% 30.06 in 3.7 mi WNW 4.6 mph - N/A   Partly Cloudy
10:49 PM 28.4 °F 23.3 °F 28.4 °F 100% 30.06 in 5.0 mi NW 4.6 mph - N/A   Partly Cloudy
10:55 PM 28.4 °F 24.6 °F 28.4 °F 100% 30.06 in 5.6 mi NW 3.5 mph - N/A   Mist
11:08 PM 28.4 °F - 28.4 °F 100% 30.06 in 6.2 mi NW 2.3 mph - N/A   Unknown
11:25 PM 28.4 °F 23.3 °F 28.4 °F 100% 30.06 in 6.2 mi NW 4.6 mph - N/A   Unknown
11:55 PM 26.6 °F - 26.6 °F 100% 30.06 in 6.2 mi Calm Calm - N/A   Partly Cloudy